Voltar ao catálogo

STARLINK-30518

AtivoComunicaçõesVLEO
NORAD 58029·PAYLOAD·🇺🇸 United States

Lançado Oct 9, 2023 de Vandenberg Space Force Base

Loading…

Próximas Passagens (próximas 24 horas)

TLE

AtualizadoSource: CelesTrak SupGP

Época: Sep 14, 2026, 21:05 UTC

1 58029C 23156B   26257.87895833  .00037897  00000+0  11200-2 0  2570
2 58029  53.1573 277.8477 0001152  91.9851  18.4507 15.34363795    16

Acompanhe STARLINK-30518 em tempo real com AllMySat

Download on the App Store